Location: Mannheim
(49.4880°N, 8.4650°E)
Time: 16:13:43
(UTC+01:00)

ISS - Visible Passes

Search period start: 20 November 2017 00:00
Search period end: 30 November 2017 00:00
Orbit: 402 x 407 km, 51.6° (Epoch: 21 November)

Date Brightness Start Highest point End Pass type
(mag) Time Alt. Az. Time Alt. Az. Time Alt. Az.
27 Nov -1.0 19:07:13 10° SSW 19:07:38 13° SSW 19:07:38 13° SSW visible
28 Nov -1.8 18:15:38 10° S 18:17:35 17° SE 18:17:35 17° SE visible
29 Nov -2.0 18:58:19 10° SW 19:00:07 28° SSW 19:00:07 28° SSW visible
